{"data":{"norad_id":59547,"intl_designator":"2024-074P","name":"STARLINK-31736","alt_names":[],"object_type":"PAYLOAD","status":"ACTIVE","operator":null,"country":"US","launch_date":"2024-04-18","launch_site_code":"AFETR","launch_vehicle":null,"mission":null,"orbit_class":"UNKNOWN","rcs_meters":null,"size_class":null,"mass_kg":null,"dimensions":null,"purposes":["comms"],"wikipedia_slug":null,"has_3d_model":false,"image_url":null,"decayed_at":null,"tle_current":{"epoch":"2026-05-24T19:01:51.219552Z","epoch_age_seconds":89596,"freshness":"FRESH","line1":"1 59547U 24074P   26144.79295393 -.00000572  00000+0 -11250-4 0  9999","line2":"2 59547  43.0060 266.7835 0002815 286.9727  73.0816 15.27581021117735","mean_motion":15.27581021,"eccentricity":0.0002815,"inclination_deg":43.006,"raan_deg":266.7835,"arg_perigee_deg":286.9727,"mean_anomaly_deg":73.0816,"bstar":-1.125e-5,"rev_number":11773,"period_min":94.266685707926,"perigee_km":481.11461577463,"apogee_km":484.97746182548,"semimajor_km":6861.1830388001,"source":"CELESTRAK","updated_at":"2026-05-25T13:38:18.981726Z"}}}